sat.trackr.live / text

‹ back to catalog

SPACEMOBILE-001

NORAD 61047 · 2024-163C

PAYLOAD ACTIVE UNKNOWN

§ Identity

Operator
Country
US
Launch date
2024-09-12
Launch site
AFETR
Launch vehicle
Mass (kg)
RCS (m²)

External: N2YO · Heavens-Above · Gunter

§ Orbital elements

Epoch: 2026-05-25T03:11:30.381792Z

Period
94.69 min
Inclination
52.9691°
Eccentricity
0.0008801
Mean motion
15.20723981 rev/d
Perigee alt
497.6 km
Apogee alt
509.7 km
Semi-major
6,881.8 km
B*
9.9720e-5
RAAN
55.1267°
Arg perigee
56.1971°
Mean anomaly
303.9860°
Rev number
9,425

§ Raw data

SPACEMOBILE-0011 61047U 24163C   26145.13299053  .00001895  00000+0  99720-4 0  99972 61047  52.9691  55.1267 0008801  56.1971 303.9860 15.20723981 94251

JSON: /api/v1/satellites/61047 · /tle

For live sub-satellite position, see the globe view (requires WebGL).

§ Visibility from observer

Set your observer location to see the next 7 days of passes ≥ 10°. The values pass through the URL so the page stays shareable.

No JS? Fill the form by hand. The geolocation button needs JavaScript.

§ Radio — SatNOGS DB

ModeDescriptionDownlinkUplink
GFSK Mode U - Transmitter 439.500 MHz
BPSK S-band telemetry 2.225 GHz

2 transmitters · refreshed weekly from db.satnogs.org